Location: Erlach
(47.0430°N, 7.0996°E)
Time: 21:45:08
(UTC+00:00)

BREEZE-M R/B - Pass Details

Date: 07 June 2020
Orbit: 311 x 4533 km, 49.7° (Epoch: 07 July)

Event Time Altitude Azimuth Distance (km) Brightness Sun altitude
Rises 02:52:52 0° 289° (WNW) 2,942 6.3 -6.6°
Reaches altitude 10° 02:55:39 10° 288° (WNW) 1,656 5.0 -6.3°
Maximum altitude 02:58:59 78° 202° (SSW) 367 1.8 -5.9°
Drops below altitude 10° 03:01:24 10° 115° (ESE) 1,211 4.9 -5.6°
Sets 03:03:09 0° 114° (ESE) 2,033 6.1 -5.4°
